| time (UTC) | temp F | wind direction | speed knots | gust knots | rain 1hr in | rain 24hr in | rain mn in | humidity % | barometer mb |
| 20260904032018 | 57 | 0.0 | 0.0 | 0.00 | 0.00 | 0.00 | 91 | 1010.6 | |
| 20260904031023 | 57 | 0.0 | 0.0 | 0.00 | 0.00 | 0.00 | 90 | 1010.6 | |
| 20260904030017 | 57 | 0.0 | 0.0 | 0.00 | 0.00 | 0.00 | 90 | 1010.5 | |
| 20260904025018 | 57 | 0.0 | 0.0 | 0.00 | 0.00 | 0.00 | 89 | 1010.4 | |
| 20260904024025 | 57 | 0.0 | 0.0 | 0.00 | 0.00 | 0.00 | 88 | 1010.3 | |
| 20260904023017 | 58 | 0.0 | 0.0 | 0.00 | 0.00 | 0.00 | 88 | 1010.4 | |
| 20260904022017 | 58 | 0.0 | 0.0 | 0.00 | 0.00 | 0.00 | 87 | 1010.4 | |
| 20260904021017 | 59 | 0.0 | 0.0 | 0.00 | 0.00 | 0.00 | 86 | 1010.3 | |
| 20260904020101 | 59 | 0.0 | 0.0 | 0.00 | 0.00 | 0.00 | 85 | 1010.3 | |
| 20260904015017 | 60 | 0.0 | 0.9 | 0.00 | 0.00 | 0.00 | 84 | 1010.3 | |
| 20260904014017 | 60 | 0.0 | 0.0 | 0.00 | 0.00 | 0.00 | 82 | 1010.3 | |
| 20260904013022 | 61 | 0.0 | 0.0 | 0.00 | 0.00 | 0.00 | 79 | 1010.3 | |
| 20260904012019 | 62 | 0.0 | 0.0 | 0.00 | 0.01 | 0.00 | 76 | 1010.3 | |
| 20260904011039 | 63 | 0.0 | 0.0 | 0.00 | 0.03 | 0.00 | 76 | 1010.3 | |
| 20260904010017 | 63 | 0.0 | 0.0 | 0.00 | 0.03 | 0.00 | 74 | 1010.2 | |
| 20260904005024 | 63 | 0.0 | 0.9 | 0.00 | 0.03 | 0.00 | 74 | 1010.1 | |
| 20260904004017 | 63 | 0.0 | 0.9 | 0.00 | 0.03 | 0.00 | 73 | 1010.1 | |
| 20260904003022 | 64 | 0.0 | 0.9 | 0.00 | 0.03 | 0.00 | 71 | 1010.2 | |
| 20260904002038 | 64 | 0.0 | 0.0 | 0.00 | 0.03 | 0.00 | 71 | 1010.2 | |
| 20260904001039 | 64 | 0.0 | 0.0 | 0.00 | 0.03 | 0.00 | 69 | 1010.1 | |
| 20260904000045 | 63 | 0.0 | 0.0 | 0.00 | 0.04 | 0.00 | 69 | 1010.1 | |
| 20260903235017 | 63 | 0.0 | 0.9 | 0.00 | 0.04 | 0.00 | 70 | 1010.1 | |
| 20260903234015 | 63 | 0.0 | 0.0 | 0.00 | 0.04 | 0.00 | 70 | 1010.1 | |
| 20260903233016 | 63 | 0.0 | 0.9 | 0.00 | 0.05 | 0.00 | 71 | 1010.2 | |
| 20260903232015 | 63 | 0.0 | 0.0 | 0.00 | 0.06 | 0.00 | 71 | 1010.1 | |
| 20260903231017 | 63 | 0.0 | 0.9 | 0.00 | 0.07 | 0.00 | 70 | 1010.1 | |
| 20260903230017 | 62 | 0.0 | 1.7 | 0.00 | 0.08 | 0.00 | 71 | 1010.2 | |
| 20260903225017 | 62 | 0.0 | 1.7 | 0.00 | 0.09 | 0.00 | 72 | 1010.3 | |
| 20260903223024 | 63 | 0.0 | 1.7 | 0.00 | 0.11 | 0.00 | 72 | 1010.4 | |
| 20260903222041 | 64 | 158 | 0.9 | 1.7 | 0.00 | 0.12 | 0.00 | 69 | 1010.3 |
| 20260903221021 | 64 | 0.0 | 1.7 | 0.00 | 0.13 | 0.00 | 67 | 1010.3 | |
| 20260903220019 | 64 | 0.0 | 0.9 | 0.00 | 0.13 | 0.00 | 67 | 1010.2 | |
| 20260903215018 | 65 | 0.0 | 0.9 | 0.00 | 0.14 | 0.00 | 66 | 1010.1 | |
| 20260903214021 | 65 | 0.0 | 0.9 | 0.00 | 0.14 | 0.00 | 63 | 1010.1 | |
| 20260903213019 | 65 | 0.0 | 1.7 | 0.00 | 0.15 | 0.00 | 63 | 1010.1 | |
| 20260903212018 | 65 | 0.0 | 1.7 | 0.00 | 0.17 | 0.00 | 65 | 1010.1 | |
| 20260903211019 | 64 | 0.0 | 0.9 | 0.00 | 0.18 | 0.00 | 64 | 1010.0 | |
| 20260903210019 | 64 | 0.0 | 1.7 | 0.00 | 0.19 | 0.00 | 66 | 1010.0 | |
| 20260903205018 | 64 | 0.0 | 0.9 | 0.00 | 0.19 | 0.00 | 67 | 1009.9 | |
| 20260903204017 | 64 | 0.0 | 2.6 | 0.00 | 0.19 | 0.00 | 64 | 1009.9 | |
| 20260903203041 | 64 | 0.0 | 4.3 | 0.00 | 0.19 | 0.00 | 66 | 1010.0 | |
| 20260903202018 | 64 | 68 | 0.9 | 2.6 | 0.00 | 0.19 | 0.00 | 64 | 1010.0 |
| 20260903201017 | 63 | 0.0 | 0.0 | 0.00 | 0.19 | 0.00 | 66 | 1010.0 | |
| 20260903200018 | 63 | 0.0 | 1.7 | 0.00 | 0.19 | 0.00 | 66 | 1010.2 | |
| 20260903195040 | 63 | 0.0 | 1.7 | 0.00 | 0.19 | 0.00 | 63 | 1010.1 | |
| 20260903194018 | 63 | 45 | 0.9 | 2.6 | 0.00 | 0.19 | 0.00 | 64 | 1010.0 |
| 20260903193038 | 63 | 0.0 | 2.6 | 0.00 | 0.19 | 0.00 | 65 | 1010.0 | |
| 20260903192017 | 63 | 0.0 | 1.7 | 0.00 | 0.19 | 0.00 | 65 | 1009.8 | |
| 20260903191017 | 63 | 0.0 | 0.9 | 0.00 | 0.19 | 0.00 | 65 | 1009.8 | |
| 20260903190017 | 62 | 0.0 | 2.6 | 0.00 | 0.19 | 0.00 | 69 | 1009.8 | |
| 20260903185017 | 62 | 135 | 0.9 | 3.5 | 0.00 | 0.19 | 0.00 | 67 | 1009.9 |
| 20260903184018 | 62 | 113 | 0.9 | 7.8 | 0.00 | 0.19 | 0.00 | 71 | 1009.8 |
| 20260903183017 | 62 | 338 | 0.9 | 5.2 | 0.00 | 0.19 | 0.00 | 70 | 1009.7 |
| 20260903182017 | 61 | 113 | 0.9 | 4.3 | 0.00 | 0.19 | 0.00 | 69 | 1009.7 |
| 20260903181017 | 61 | 68 | 0.9 | 4.3 | 0.00 | 0.19 | 0.00 | 71 | 1009.5 |
| 20260903180017 | 61 | 0.0 | 1.7 | 0.00 | 0.19 | 0.00 | 80 | 1009.5 | |
| 20260903175017 | 60 | 0.0 | 0.9 | 0.00 | 0.19 | 0.00 | 79 | 1009.5 | |
| 20260903174017 | 59 | 0.0 | 0.0 | 0.00 | 0.19 | 0.00 | 85 | 1009.5 | |
| 20260903173017 | 58 | 0.0 | 0.0 | 0.00 | 0.19 | 0.00 | 88 | 1009.6 | |
| 20260903172016 | 57 | 0.0 | 0.0 | 0.00 | 0.19 | 0.00 | 91 | 1009.5 | |
| 20260903171038 | 57 | 0.0 | 0.0 | 0.00 | 0.19 | 0.00 | 92 | 1009.4 | |
| 20260903170017 | 56 | 0.0 | 0.0 | 0.00 | 0.19 | 0.00 | 91 | 1009.5 | |
| 20260903165057 | 56 | 0.0 | 0.0 | 0.00 | 0.19 | 0.00 | 91 | 1009.5 | |
| 20260903164017 | 55 | 0.0 | 0.0 | 0.00 | 0.19 | 0.00 | 92 | 1009.5 | |
| 20260903163037 | 55 | 0.0 | 0.0 | 0.00 | 0.19 | 0.00 | 93 | 1009.5 | |
| 20260903162017 | 55 | 0.0 | 1.7 | 0.00 | 0.19 | 0.00 | 93 | 1009.6 | |
| 20260903161017 | 55 | 0.0 | 0.0 | 0.00 | 0.19 | 0.00 | 94 | 1009.7 | |
| 20260903160020 | 54 | 0.0 | 0.0 | 0.00 | 0.19 | 0.00 | 94 | 1009.7 | |
| 20260903155044 | 54 | 0.0 | 0.0 | 0.00 | 0.19 | 0.00 | 95 | 1009.5 | |
| 20260903154016 | 54 | 0.0 | 0.0 | 0.00 | 0.19 | 0.00 | 96 | 1009.5 | |
| 20260903153017 | 54 | 0.0 | 0.0 | 0.00 | 0.19 | 0.00 | 97 | 1009.6 | |
| 20260903152017 | 53 | 0.0 | 0.0 | 0.00 | 0.19 | 0.00 | 97 | 1009.6 | |
| 20260903151018 | 53 | 0.0 | 0.0 | 0.00 | 0.19 | 0.00 | 97 | 1009.6 | |
| 20260903150018 | 53 | 0.0 | 0.0 | 0.00 | 0.19 | 0.00 | 97 | 1009.6 | |
| 20260903145104 | 52 | 0.0 | 0.0 | 0.00 | 0.19 | 0.00 | 97 | 1009.6 | |
| 20260903144017 | 52 | 0.0 | 0.0 | 0.00 | 0.19 | 0.00 | 97 | 1009.6 | |
| 20260903143018 | 52 | 0.0 | 0.0 | 0.00 | 0.19 | 0.00 | 97 | 1009.5 | |
| 20260903142017 | 52 | 0.0 | 0.0 | 0.00 | 0.19 | 0.00 | 97 | 1009.5 | |
| 20260903141017 | 52 | 0.0 | 0.0 | 0.00 | 0.19 | 0.00 | 97 | 1009.4 | |
| 20260903140017 | 52 | 0.0 | 0.0 | 0.00 | 0.19 | 0.00 | 97 | 1009.5 | |
| 20260903135017 | 52 | 0.0 | 0.0 | 0.00 | 0.19 | 0.00 | 97 | 1009.4 | |
| 20260903134016 | 52 | 0.0 | 0.0 | 0.00 | 0.19 | 0.00 | 97 | 1009.3 | |
| 20260903133016 | 52 | 0.0 | 0.0 | 0.00 | 0.19 | 0.00 | 97 | 1009.1 | |
| 20260903132016 | 52 | 0.0 | 0.0 | 0.00 | 0.19 | 0.00 | 97 | 1009.1 | |
| 20260903131017 | 52 | 0.0 | 0.0 | 0.00 | 0.19 | 0.00 | 97 | 1009.1 | |
| 20260903130017 | 52 | 0.0 | 0.0 | 0.00 | 0.19 | 0.00 | 97 | 1008.9 | |
| 20260903125017 | 52 | 0.0 | 0.0 | 0.00 | 0.19 | 0.00 | 97 | 1008.8 | |
| 20260903124017 | 52 | 0.0 | 0.0 | 0.00 | 0.19 | 0.00 | 97 | 1008.7 | |
| 20260903123016 | 52 | 0.0 | 0.0 | 0.00 | 0.19 | 0.00 | 97 | 1008.6 | |
| 20260903122016 | 52 | 0.0 | 0.0 | 0.00 | 0.19 | 0.00 | 97 | 1008.6 | |
| 20260903121017 | 52 | 0.0 | 0.0 | 0.00 | 0.19 | 0.00 | 97 | 1008.6 | |
| 20260903120117 | 52 | 0.0 | 0.0 | 0.00 | 0.19 | 0.00 | 97 | 1008.6 | |
| 20260903115017 | 52 | 0.0 | 0.0 | 0.00 | 0.19 | 0.00 | 97 | 1008.6 | |
| 20260903114036 | 52 | 0.0 | 0.0 | 0.00 | 0.19 | 0.00 | 97 | 1008.6 | |
| 20260903113016 | 52 | 0.0 | 0.0 | 0.00 | 0.19 | 0.00 | 97 | 1008.5 | |
| 20260903112016 | 52 | 0.0 | 0.0 | 0.00 | 0.19 | 0.00 | 97 | 1008.4 | |
| 20260903111016 | 52 | 0.0 | 0.0 | 0.00 | 0.19 | 0.00 | 97 | 1008.3 | |
| 20260903110016 | 52 | 0.0 | 0.0 | 0.00 | 0.19 | 0.00 | 97 | 1008.4 | |
| 20260903105016 | 52 | 0.0 | 0.0 | 0.00 | 0.19 | 0.00 | 97 | 1008.4 | |
| 20260903104016 | 52 | 0.0 | 0.0 | 0.00 | 0.19 | 0.00 | 97 | 1008.4 | |
| 20260903103016 | 52 | 0.0 | 0.0 | 0.00 | 0.19 | 0.00 | 97 | 1008.4 | |
| 20260903102036 | 52 | 0.0 | 0.0 | 0.00 | 0.19 | 0.00 | 97 | 1008.5 | |
| 20260903101016 | 52 | 0.0 | 0.0 | 0.00 | 0.19 | 0.00 | 97 | 1008.4 | |
| 20260903100016 | 52 | 0.0 | 0.0 | 0.00 | 0.19 | 0.00 | 97 | 1008.5 | |
| 20260903095016 | 52 | 0.0 | 0.0 | 0.00 | 0.19 | 0.00 | 97 | 1008.4 | |
| 20260903094016 | 52 | 0.0 | 0.0 | 0.00 | 0.19 | 0.00 | 97 | 1008.3 | |
| 20260903093017 | 52 | 0.0 | 0.0 | 0.00 | 0.19 | 0.00 | 97 | 1008.3 | |
| 20260903092016 | 52 | 0.0 | 0.0 | 0.00 | 0.19 | 0.00 | 97 | 1008.2 | |
| 20260903091016 | 52 | 0.0 | 0.0 | 0.00 | 0.19 | 0.00 | 97 | 1008.3 | |
| 20260903090016 | 52 | 0.0 | 0.0 | 0.00 | 0.19 | 0.00 | 97 | 1008.3 | |
| 20260903085036 | 52 | 0.0 | 0.0 | 0.00 | 0.19 | 0.00 | 97 | 1008.2 | |
| 20260903084020 | 52 | 0.0 | 0.0 | 0.00 | 0.19 | 0.00 | 97 | 1008.3 | |
| 20260903083022 | 52 | 0.0 | 0.0 | 0.00 | 0.19 | 0.00 | 97 | 1008.4 | |
| 20260903082017 | 52 | 0.0 | 0.0 | 0.00 | 0.19 | 0.00 | 97 | 1008.3 | |
| 20260903081019 | 52 | 0.0 | 0.0 | 0.00 | 0.19 | 0.00 | 97 | 1008.2 | |
| 20260903080016 | 52 | 0.0 | 0.0 | 0.00 | 0.19 | 0.00 | 97 | 1008.3 | |
| 20260903075016 | 53 | 0.0 | 0.0 | 0.00 | 0.19 | 0.00 | 97 | 1008.2 | |
| 20260903074016 | 53 | 0.0 | 0.0 | 0.00 | 0.19 | 0.00 | 97 | 1008.2 | |
| 20260903073036 | 53 | 0.0 | 0.0 | 0.00 | 0.19 | 0.00 | 97 | 1008.1 | |
| 20260903072037 | 53 | 0.0 | 0.0 | 0.00 | 0.19 | 0.00 | 97 | 1008.2 | |
| 20260903071016 | 53 | 0.0 | 0.0 | 0.00 | 0.19 | 0.00 | 97 | 1008.0 | |
| 20260903070016 | 53 | 0.0 | 0.0 | 0.00 | 0.19 | 0.19 | 97 | 1008.1 | |
| 20260903065016 | 53 | 0.0 | 0.9 | 0.00 | 0.19 | 0.19 | 97 | 1008.2 | |
| 20260903064016 | 53 | 0.0 | 0.9 | 0.00 | 0.19 | 0.19 | 97 | 1008.0 | |
| 20260903063016 | 53 | 0.0 | 0.9 | 0.00 | 0.19 | 0.19 | 97 | 1007.8 | |
| 20260903062016 | 53 | 0.0 | 0.9 | 0.00 | 0.19 | 0.19 | 97 | 1007.9 | |
| 20260903061016 | 53 | 0.0 | 0.9 | 0.00 | 0.19 | 0.19 | 96 | 1007.8 | |
| 20260903060016 | 53 | 0.0 | 0.0 | 0.00 | 0.19 | 0.19 | 97 | 1007.8 | |
| 20260903055016 | 54 | 0.0 | 0.9 | 0.00 | 0.19 | 0.19 | 97 | 1007.9 | |
| 20260903054016 | 54 | 0.0 | 0.0 | 0.00 | 0.19 | 0.19 | 97 | 1008.1 | |
| 20260903053036 | 54 | 0.0 | 0.9 | 0.00 | 0.19 | 0.19 | 97 | 1008.1 | |
| 20260903052016 | 54 | 0.0 | 0.0 | 0.00 | 0.19 | 0.19 | 97 | 1008.0 | |
| 20260903051017 | 54 | 0.0 | 0.0 | 0.00 | 0.19 | 0.19 | 96 | 1008.0 | |
| 20260903050049 | 54 | 0.0 | 0.0 | 0.00 | 0.19 | 0.19 | 96 | 1007.8 | |
| 20260903045016 | 54 | 0.0 | 0.0 | 0.00 | 0.19 | 0.19 | 96 | 1007.8 | |
| 20260903044015 | 54 | 0.0 | 0.0 | 0.00 | 0.19 | 0.19 | 96 | 1007.8 | |
| 20260903043018 | 54 | 0.0 | 0.0 | 0.00 | 0.19 | 0.19 | 96 | 1007.7 | |
| 20260903042047 | 55 | 0.0 | 0.0 | 0.00 | 0.19 | 0.19 | 96 | 1007.6 | |
| 20260903041042 | 55 | 0.0 | 0.0 | 0.00 | 0.19 | 0.19 | 96 | 1007.5 | |
| 20260903040019 | 55 | 0.0 | 0.0 | 0.00 | 0.19 | 0.19 | 96 | 1007.5 | |
| 20260903035022 | 55 | 0.0 | 0.0 | 0.00 | 0.20 | 0.19 | 96 | 1007.4 | |
| 20260903034019 | 55 | 0.0 | 0.0 | 0.00 | 0.20 | 0.19 | 96 | 1007.2 | |
| 20260903033017 | 56 | 0.0 | 0.0 | 0.00 | 0.20 | 0.19 | 96 | 1007.1 |